Terminal Aerodrome Forecast
Issued by NWS Mt. Holly, NJ

Home | Current Version | Previous Version | Text Only | Print | Product List | Glossary On
Versions: 1 2 3 4 5 6 7 8 9 10 11 12 13 14 15 16 17 18 19 20 21
000
FTUS41 KPHI 011100
TAFABE
TAF
KABE 011124Z 0112/0212 04012KT P6SM VCSH OVC035
      TEMPO 0112/0115 5SM -SHRA BR BKN025 OVC035
     FM011500 35012G20KT P6SM BKN040
     FM020000 34014G24KT P6SM BKN050=

USA.gov is the U.S. government's official web portal to all federal, state and local government web resources and services.